Location: Bluff Heights
(33.7692°N, 118.1592°W)
Time: 12:43:32
(UTC+00:00)

S-56A Canister/Altair - Pass Details

Date: 27 July 2021
Orbit: 632 x 2500 km, 38.9° (Epoch: 25 September)

Event Time Altitude Azimuth Distance (km) Brightness Sun altitude
Rises 06:26:14 0° 293° (WNW) 5,905 12.7 -32.6°
Reaches altitude 10° 06:30:33 10° 289° (WNW) 4,695 12.0 -33.0°
Enters shadow 06:42:11 51° 223° (SW) 2,021 9.3 -34.0°
